Flag for Guatemala Weather past 2 weeks in Escuintla, Guatemala

Now
68 °F

Light rain. Fog.


Feels Like: 68 °F
Forecast: 70 / 90 °F
Wind: 5 mph from Southwest

Location: Guatemala Aeropuertola Aurora

Current Time: Apr 17, 2015 at 11:13:43 PM

Latest Report: Apr 17, 2015 at 11:00 PM


Visibility: 2 mi

Pressure: 30.27 "Hg

Humidity: 94%

Dew point: 66 °F

Location of EscuintlaLocation

Historic Weather in Escuintla — Graph

°F

Escuintla temperature yesterday

Maximum temperature yesterday: 81 °F (at 2:00 PM)
Minimum temperature yesterday: 64 °F (at 1:00 AM)
Average temperature yesterday: 70 °F

Past Weeks' High & Low Weather Summary

 TemperatureHumidityPressure
High82 °F (Apr 11, 2:00 PM)100% (Apr 9, 2:00 AM)30.36 "Hg (Apr 9, 2:00 AM)
Low57 °F (Apr 6, 6:00 AM)34% (Apr 7, 3:00 PM)30.15 "Hg (Apr 9, 5:00 PM)
Average69 °F73%30.26 "Hg
* Reported Apr 2 10:00 PM — Apr 17 10:00 PM, Escuintla, Weather by CustomWeather, © 2015

Note: Actual official high and low records may vary slightly from our data, if they occured in-between our weather recording intervals... More about our weather records

Advertising

Escuintla weather history for previous 24 hours

 ConditionsComfort  
Time TempWeatherWind HumidityBarometerVisibility
10:00 PM
Fri, Apr 17
68 °FDrizzle. Fog.7 mph94%30.27 "Hg2 mi
9:00 PM68 °FFog.9 mph88%30.27 "Hg2 mi
8:00 PM68 °FPartly cloudy.9 mph88%30.24 "Hg2 mi
7:00 PM70 °FPassing clouds.9 mph83%30.21 "Hg3 mi
6:00 PM70 °FScattered showers. Scattered clouds.12 mph83%30.18 "Hg3 mi
5:00 PM75 °FScattered clouds.16 mph65%30.18 "Hg4 mi
4:00 PM77 °FScattered clouds.16 mph61%30.18 "Hg4 mi
3:00 PM79 °FScattered clouds.18 mph58%30.21 "Hg5 mi
2:00 PM79 °FRain. Cloudy.N/A61%30.21 "HgN/A
1:00 PM81 °FScattered clouds.14 mph51%30.24 "HgN/A
12:00 PM81 °FScattered clouds.12 mph48%30.27 "HgN/A
11:00 AM77 °FScattered clouds.No wind57%30.30 "HgN/A
10:00 AM73 °FScattered clouds.5 mph61%30.30 "HgN/A
9:00 AM70 °FPartly sunny.5 mph78%30.30 "Hg5 mi
8:00 AM66 °FPartly sunny.No wind88%30.30 "Hg4 mi
7:00 AM64 °FScattered clouds.2 mph94%30.27 "Hg4 mi
6:00 AM63 °FPassing clouds.No wind94%30.27 "Hg4 mi
5:00 AM63 °FPassing clouds.5 mph100%30.27 "Hg5 mi
4:00 AM63 °FPassing clouds.5 mph94%30.27 "Hg5 mi
3:00 AM63 °FPassing clouds.5 mph94%30.27 "Hg4 mi
2:00 AM64 °FPassing clouds.5 mph94%30.27 "Hg5 mi
1:00 AM64 °FPassing clouds.2 mph94%30.30 "Hg4 mi
12:00 AM66 °FPassing clouds.5 mph88%30.30 "Hg4 mi
11:00 PM
Thu, Apr 16
66 °FFog.2 mph100%30.30 "Hg2 mi
Weather by CustomWeather, © 2015

See weather overviewHow to use our weather pages